EJU96HC LIPZ-LFLL

Flight info

Callsign EJU96HC
Flight time 1h 5m
Altitude 27000
Route VIC DCT VADIK DCT ADOSA DCT EVANO DCT RONOP DCT GIGUS Z40 AMVAR
Aircraft A320/M-SDE2E3FGHIJ1RWXYZ/LB1

Departure

Time 2026-04-28 12:01
Airport Venice Marco Polo Airport (LIPZ)

Arrival

Time 2026-04-28 13:07
Airport Lyon Saint-Exupéry Airport (LFLL)
Time Latitude Longitude Altitude Speed Heading
2026-04-28 11:30 45.50286 12.34166 16 ft 0 kts 312°
2026-04-28 11:52 45.50278 12.34178 18 ft 4 kts 311°
2026-04-28 11:52 45.50261 12.34208 16 ft 4 kts 307°
2026-04-28 11:53 45.50246 12.34240 16 ft 4 kts 295°
2026-04-28 11:53 45.50239 12.34274 16 ft 4 kts 253°
2026-04-28 11:53 45.50243 12.34287 16 ft 0 kts 221°
2026-04-28 11:55 45.50233 12.34273 17 ft 6 kts 221°
2026-04-28 11:55 45.50187 12.34217 18 ft 10 kts 221°
2026-04-28 11:55 45.50138 12.34155 17 ft 9 kts 222°
2026-04-28 11:55 45.50085 12.34086 17 ft 12 kts 223°
2026-04-28 11:56 45.50020 12.33999 17 ft 12 kts 222°
2026-04-28 11:56 45.49959 12.33922 16 ft 11 kts 221°
2026-04-28 11:56 45.49898 12.33845 17 ft 11 kts 221°
2026-04-28 11:56 45.49842 12.33777 17 ft 10 kts 221°
2026-04-28 11:57 45.49795 12.33717 18 ft 8 kts 221°
2026-04-28 11:57 45.49755 12.33669 18 ft 7 kts 215°
2026-04-28 11:57 45.49717 12.33633 16 ft 6 kts 208°
2026-04-28 11:57 45.49664 12.33588 18 ft 11 kts 217°
2026-04-28 11:58 45.49611 12.33525 17 ft 9 kts 218°
2026-04-28 11:58 45.49552 12.33535 16 ft 12 kts 144°
2026-04-28 11:58 45.49499 12.33615 16 ft 1 kts 131°
2026-04-28 11:58 45.49497 12.33619 16 ft 0 kts 131°
2026-04-28 11:59 45.49496 12.33620 16 ft 0 kts 131°
2026-04-28 11:59 45.49495 12.33622 16 ft 0 kts 131°
2026-04-28 11:59 45.49494 12.33624 19 ft 0 kts 131°
2026-04-28 11:59 45.49493 12.33625 16 ft 0 kts 131°
2026-04-28 12:00 45.49478 12.33649 17 ft 7 kts 131°
2026-04-28 12:00 45.49446 12.33702 15 ft 7 kts 131°
2026-04-28 12:00 45.49438 12.33800 15 ft 17 kts 57°
2026-04-28 12:00 45.49576 12.33983 15 ft 48 kts 42°
2026-04-28 12:01 45.50002 12.34532 16 ft 114 kts 42°
2026-04-28 12:01 45.50724 12.35459 19 ft 163 kts 43°
2026-04-28 12:01 45.51614 12.36620 459 ft 175 kts 43°
2026-04-28 12:01 45.52500 12.37804 1173 ft 178 kts 46°
2026-04-28 12:02 45.53313 12.39245 1555 ft 197 kts 67°
2026-04-28 12:02 45.53597 12.41183 2118 ft 204 kts 94°
2026-04-28 12:02 45.53399 12.43195 2794 ft 206 kts 100°
2026-04-28 12:02 45.53182 12.45238 3510 ft 210 kts 99°
2026-04-28 12:03 45.52966 12.47306 4160 ft 211 kts 99°
2026-04-28 12:03 45.52751 12.49385 4766 ft 213 kts 99°
2026-04-28 12:03 45.52255 12.51334 5332 ft 215 kts 126°
2026-04-28 12:03 45.51117 12.52680 5900 ft 217 kts 157°
2026-04-28 12:04 45.49593 12.52997 6246 ft 232 kts 189°
2026-04-28 12:04 45.48026 12.52232 6804 ft 241 kts 204°
2026-04-28 12:04 45.46655 12.50847 7524 ft 246 kts 227°
2026-04-28 12:04 45.45736 12.48751 8108 ft 261 kts 250°
2026-04-28 12:05 45.45452 12.46106 8529 ft 281 kts 267°
2026-04-28 12:05 45.45373 12.43289 9242 ft 287 kts 266°
2026-04-28 12:05 45.45283 12.40428 10062 ft 290 kts 266°
2026-04-28 12:05 45.45182 12.37451 10574 ft 307 kts 266°
2026-04-28 12:06 45.45070 12.34359 10926 ft 325 kts 266°
2026-04-28 12:06 45.44951 12.31108 11592 ft 331 kts 266°
2026-04-28 12:06 45.44831 12.27824 12363 ft 333 kts 266°
2026-04-28 12:06 45.44707 12.24521 13123 ft 335 kts 266°
2026-04-28 12:07 45.44580 12.21199 13858 ft 337 kts 266°
2026-04-28 12:07 45.44452 12.17867 14555 ft 339 kts 266°
2026-04-28 12:07 45.44385 12.14505 15215 ft 341 kts 272°
2026-04-28 12:07 45.44771 12.11166 15858 ft 345 kts 285°
2026-04-28 12:08 45.45677 12.07992 16516 ft 348 kts 297°
2026-04-28 12:08 45.46973 12.05064 17164 ft 350 kts 301°
2026-04-28 12:08 45.48301 12.02144 17804 ft 352 kts 301°
2026-04-28 12:08 45.49627 11.99208 18416 ft 353 kts 301°
2026-04-28 12:09 45.50960 11.96246 18994 ft 356 kts 301°
2026-04-28 12:09 45.52298 11.93263 19573 ft 358 kts 301°
2026-04-28 12:09 45.53640 11.90266 20108 ft 360 kts 301°
2026-04-28 12:09 45.54992 11.87245 20672 ft 362 kts 301°
2026-04-28 12:10 45.56351 11.84206 21204 ft 364 kts 301°
2026-04-28 12:10 45.57696 11.81194 21697 ft 366 kts 301°
2026-04-28 12:10 45.59063 11.78121 22193 ft 368 kts 301°
2026-04-28 12:10 45.60438 11.75029 22689 ft 370 kts 301°
2026-04-28 12:11 45.61821 11.71919 23148 ft 372 kts 300°
2026-04-28 12:11 45.62965 11.68611 23597 ft 372 kts 289°
2026-04-28 12:11 45.63633 11.65043 24017 ft 374 kts 279°
2026-04-28 12:11 45.63824 11.61335 24444 ft 376 kts 271°
2026-04-28 12:12 45.63869 11.57591 24863 ft 378 kts 271°
2026-04-28 12:12 45.63914 11.53828 25280 ft 379 kts 271°
2026-04-28 12:12 45.63961 11.50048 25675 ft 381 kts 271°
2026-04-28 12:12 45.64010 11.46252 26057 ft 383 kts 271°
2026-04-28 12:13 45.64058 11.42438 26430 ft 385 kts 271°
2026-04-28 12:13 45.64105 11.38614 26816 ft 387 kts 271°
2026-04-28 12:13 45.64149 11.34765 27044 ft 388 kts 271°
2026-04-28 12:13 45.64190 11.30965 27088 ft 375 kts 271°
2026-04-28 12:14 45.64227 11.27301 27094 ft 365 kts 271°
2026-04-28 12:14 45.64263 11.23688 27094 ft 363 kts 271°
2026-04-28 12:14 45.64298 11.20093 27101 ft 362 kts 271°
2026-04-28 12:14 45.64330 11.16497 27090 ft 362 kts 271°
2026-04-28 12:15 45.64361 11.12898 27087 ft 362 kts 271°
2026-04-28 12:15 45.64392 11.09302 27090 ft 362 kts 271°
2026-04-28 12:15 45.64424 11.05713 27087 ft 362 kts 271°
2026-04-28 12:15 45.64361 11.02114 27095 ft 363 kts 264°
2026-04-28 12:16 45.64099 10.99751 27087 ft 363 kts 261°
2026-04-28 12:16 45.63647 10.96197 27086 ft 364 kts 261°
2026-04-28 12:16 45.63195 10.92643 27082 ft 364 kts 261°
2026-04-28 12:16 45.62746 10.89089 27087 ft 364 kts 261°
2026-04-28 12:17 45.62296 10.85534 27080 ft 363 kts 261°
2026-04-28 12:17 45.61845 10.81983 27076 ft 363 kts 261°
2026-04-28 12:17 45.61396 10.78434 27076 ft 363 kts 261°
2026-04-28 12:17 45.60948 10.74886 27072 ft 363 kts 261°
2026-04-28 12:18 45.60498 10.71347 27069 ft 363 kts 261°
2026-04-28 12:18 45.60042 10.67803 27070 ft 363 kts 261°
2026-04-28 12:18 45.59587 10.64255 27065 ft 363 kts 261°
2026-04-28 12:18 45.59134 10.60721 27065 ft 363 kts 261°
2026-04-28 12:19 45.58678 10.57179 27062 ft 363 kts 261°
2026-04-28 12:19 45.58222 10.53637 27062 ft 363 kts 261°
2026-04-28 12:19 45.57764 10.50096 27057 ft 363 kts 261°
2026-04-28 12:19 45.57304 10.46552 27055 ft 363 kts 260°
2026-04-28 12:20 45.56840 10.43007 27053 ft 363 kts 260°
2026-04-28 12:20 45.56374 10.39460 27052 ft 363 kts 260°
2026-04-28 12:20 45.55910 10.35920 27051 ft 363 kts 261°
2026-04-28 12:20 45.55445 10.32377 27051 ft 363 kts 260°
2026-04-28 12:21 45.54981 10.28837 27052 ft 363 kts 260°
2026-04-28 12:21 45.54515 10.25301 27051 ft 363 kts 260°
2026-04-28 12:21 45.54046 10.21763 27046 ft 363 kts 260°
2026-04-28 12:21 45.53576 10.18231 27042 ft 362 kts 260°
2026-04-28 12:22 45.53107 10.14701 27039 ft 362 kts 260°
2026-04-28 12:22 45.52645 10.11219 27035 ft 362 kts 260°
2026-04-28 12:22 45.52175 10.07690 27032 ft 362 kts 260°
2026-04-28 12:22 45.51697 10.04116 27030 ft 362 kts 260°
2026-04-28 12:23 45.51232 10.00644 27029 ft 362 kts 260°
2026-04-28 12:23 45.50759 9.97113 27029 ft 362 kts 260°
2026-04-28 12:23 45.50285 9.93588 27030 ft 362 kts 260°
2026-04-28 12:23 45.49808 9.90072 27029 ft 362 kts 260°
2026-04-28 12:24 45.49327 9.86554 27030 ft 362 kts 259°
2026-04-28 12:24 45.48844 9.83037 27029 ft 362 kts 259°
2026-04-28 12:24 45.48363 9.79519 27031 ft 362 kts 260°
2026-04-28 12:24 45.47884 9.76004 27031 ft 362 kts 260°
2026-04-28 12:25 45.47405 9.72483 27032 ft 362 kts 260°
2026-04-28 12:25 45.46926 9.68962 27041 ft 362 kts 259°
2026-04-28 12:25 45.46442 9.65443 27049 ft 362 kts 259°
2026-04-28 12:25 45.45955 9.61921 27045 ft 363 kts 259°
2026-04-28 12:26 45.45466 9.58394 27046 ft 363 kts 259°
2026-04-28 12:26 45.44975 9.54868 27046 ft 363 kts 259°
2026-04-28 12:26 45.44482 9.51342 27046 ft 363 kts 259°
2026-04-28 12:26 45.43987 9.47817 27043 ft 363 kts 259°
2026-04-28 12:27 45.43496 9.44296 27043 ft 363 kts 259°
2026-04-28 12:27 45.43007 9.40771 27052 ft 363 kts 259°
2026-04-28 12:27 45.42517 9.37243 27059 ft 363 kts 259°
2026-04-28 12:27 45.42023 9.33719 27059 ft 363 kts 259°
2026-04-28 12:28 45.41526 9.30203 27056 ft 363 kts 259°
2026-04-28 12:28 45.41025 9.26679 27055 ft 363 kts 259°
2026-04-28 12:28 45.40524 9.23155 27055 ft 363 kts 259°
2026-04-28 12:28 45.40026 9.19644 27051 ft 363 kts 259°
2026-04-28 12:29 45.39029 9.12608 27049 ft 363 kts 259°
2026-04-28 12:29 45.38528 9.09091 27049 ft 363 kts 259°
2026-04-28 12:29 45.38026 9.05583 27049 ft 362 kts 259°
2026-04-28 12:30 45.37526 9.02117 27050 ft 362 kts 259°
2026-04-28 12:30 45.37018 8.98605 27050 ft 363 kts 259°
2026-04-28 12:30 45.36511 8.95097 27051 ft 363 kts 259°
2026-04-28 12:30 45.36004 8.91584 27053 ft 362 kts 259°
2026-04-28 12:31 45.35497 8.88073 27055 ft 362 kts 259°
2026-04-28 12:31 45.34987 8.84564 27056 ft 362 kts 259°
2026-04-28 12:31 45.34477 8.81056 27058 ft 362 kts 259°
2026-04-28 12:31 45.33964 8.77550 27060 ft 362 kts 258°
2026-04-28 12:32 45.33487 8.74034 27063 ft 362 kts 261°
2026-04-28 12:32 45.33123 8.70501 27063 ft 362 kts 263°
2026-04-28 12:32 45.32827 8.66945 27065 ft 362 kts 263°
2026-04-28 12:32 45.32558 8.63388 27066 ft 362 kts 264°
2026-04-28 12:33 45.32287 8.59832 27067 ft 362 kts 263°
2026-04-28 12:33 45.31999 8.56278 27069 ft 362 kts 263°
2026-04-28 12:33 45.31697 8.52726 27069 ft 362 kts 263°
2026-04-28 12:33 45.31385 8.49180 27071 ft 362 kts 263°
2026-04-28 12:34 45.31067 8.45631 27071 ft 362 kts 263°
2026-04-28 12:34 45.30746 8.42083 27071 ft 362 kts 262°
2026-04-28 12:34 45.30422 8.38544 27071 ft 362 kts 262°
2026-04-28 12:34 45.30096 8.35000 27071 ft 362 kts 262°
2026-04-28 12:35 45.29771 8.31457 27067 ft 362 kts 262°
2026-04-28 12:35 45.29447 8.27914 27070 ft 362 kts 262°
2026-04-28 12:35 45.29122 8.24371 27069 ft 362 kts 262°
2026-04-28 12:35 45.28792 8.20830 27068 ft 362 kts 262°
2026-04-28 12:36 45.28462 8.17288 27070 ft 362 kts 262°
2026-04-28 12:36 45.28136 8.13753 27070 ft 362 kts 262°
2026-04-28 12:36 45.27811 8.10211 27071 ft 362 kts 262°
2026-04-28 12:36 45.27485 8.06670 27075 ft 362 kts 262°
2026-04-28 12:37 45.27156 8.03126 27077 ft 361 kts 262°
2026-04-28 12:37 45.26822 7.99596 27078 ft 361 kts 262°
2026-04-28 12:37 45.26487 7.96059 27076 ft 361 kts 262°
2026-04-28 12:37 45.26154 7.92571 27078 ft 361 kts 262°
2026-04-28 12:38 45.25813 7.88999 27078 ft 361 kts 262°
2026-04-28 12:38 45.25482 7.85511 27077 ft 361 kts 262°
2026-04-28 12:38 45.25141 7.81935 27075 ft 361 kts 262°
2026-04-28 12:38 45.24802 7.78413 27070 ft 361 kts 262°
2026-04-28 12:39 45.24463 7.74884 27071 ft 361 kts 262°
2026-04-28 12:39 45.24122 7.71357 27068 ft 361 kts 262°
2026-04-28 12:39 45.23784 7.67875 27068 ft 361 kts 262°
2026-04-28 12:39 45.23441 7.64347 27067 ft 361 kts 262°
2026-04-28 12:40 45.23092 7.60771 27045 ft 361 kts 262°
2026-04-28 12:40 45.22753 7.57292 26795 ft 352 kts 262°
2026-04-28 12:40 45.22423 7.53934 26549 ft 345 kts 262°
2026-04-28 12:40 45.22092 7.50575 26295 ft 343 kts 262°
2026-04-28 12:41 45.21763 7.47236 26034 ft 341 kts 262°
2026-04-28 12:41 45.21433 7.43910 25795 ft 340 kts 262°
2026-04-28 12:41 45.21100 7.40594 25544 ft 339 kts 262°
2026-04-28 12:41 45.20770 7.37287 25289 ft 338 kts 262°
2026-04-28 12:42 45.20442 7.33992 25039 ft 338 kts 262°
2026-04-28 12:42 45.20114 7.30700 24793 ft 337 kts 261°
2026-04-28 12:42 45.19783 7.27421 24534 ft 336 kts 261°
2026-04-28 12:42 45.19451 7.24146 24282 ft 335 kts 261°
2026-04-28 12:43 45.19123 7.20878 24030 ft 335 kts 263°
2026-04-28 12:43 45.19025 7.17593 23779 ft 334 kts 271°
2026-04-28 12:43 45.19287 7.14326 23527 ft 334 kts 279°
2026-04-28 12:43 45.19901 7.11149 23260 ft 335 kts 288°
2026-04-28 12:44 45.20775 7.08086 23016 ft 335 kts 290°
2026-04-28 12:44 45.21660 7.05036 22775 ft 334 kts 290°
2026-04-28 12:44 45.22538 7.01995 22520 ft 333 kts 290°
2026-04-28 12:44 45.23410 6.98967 22271 ft 332 kts 289°
2026-04-28 12:45 45.24277 6.95942 22021 ft 330 kts 289°
2026-04-28 12:45 45.25140 6.92925 21769 ft 329 kts 289°
2026-04-28 12:45 45.26000 6.89916 21517 ft 328 kts 289°
2026-04-28 12:45 45.26845 6.86953 21266 ft 328 kts 289°
2026-04-28 12:46 45.27697 6.83957 21020 ft 327 kts 289°
2026-04-28 12:46 45.28550 6.80970 20764 ft 326 kts 289°
2026-04-28 12:46 45.29412 6.77948 20512 ft 326 kts 289°
2026-04-28 12:46 45.30254 6.75007 20265 ft 325 kts 289°
2026-04-28 12:47 45.31104 6.72040 20010 ft 324 kts 289°
2026-04-28 12:47 45.31946 6.69086 19773 ft 322 kts 289°
2026-04-28 12:47 45.32783 6.66136 19524 ft 322 kts 289°
2026-04-28 12:47 45.33613 6.63195 19261 ft 320 kts 289°
2026-04-28 12:48 45.34445 6.60257 19010 ft 320 kts 289°
2026-04-28 12:48 45.35274 6.57326 18754 ft 319 kts 289°
2026-04-28 12:48 45.36101 6.54404 18506 ft 318 kts 289°
2026-04-28 12:48 45.36921 6.51501 18255 ft 317 kts 289°
2026-04-28 12:49 45.37739 6.48599 17999 ft 316 kts 289°
2026-04-28 12:49 45.38424 6.45649 17750 ft 313 kts 279°
2026-04-28 12:49 45.38659 6.42595 17493 ft 309 kts 268°
2026-04-28 12:49 45.38454 6.39568 17250 ft 308 kts 259°
2026-04-28 12:50 45.38098 6.36567 17000 ft 307 kts 259°
2026-04-28 12:50 45.37746 6.33572 16748 ft 306 kts 259°
2026-04-28 12:50 45.37397 6.30588 16494 ft 306 kts 259°
2026-04-28 12:50 45.37050 6.27605 16240 ft 305 kts 259°
2026-04-28 12:51 45.36705 6.24614 15990 ft 306 kts 259°
2026-04-28 12:51 45.36361 6.21629 15741 ft 305 kts 259°
2026-04-28 12:51 45.36014 6.18658 15490 ft 305 kts 259°
2026-04-28 12:51 45.35668 6.15698 15240 ft 304 kts 259°
2026-04-28 12:52 45.35322 6.12735 14986 ft 303 kts 259°
2026-04-28 12:52 45.34972 6.09779 14735 ft 303 kts 259°
2026-04-28 12:52 45.34625 6.06838 14482 ft 302 kts 259°
2026-04-28 12:52 45.34278 6.03894 14232 ft 302 kts 259°
2026-04-28 12:53 45.33927 6.00956 13978 ft 301 kts 259°
2026-04-28 12:53 45.33582 5.98060 13734 ft 301 kts 259°
2026-04-28 12:53 45.33227 5.95094 13478 ft 301 kts 259°
2026-04-28 12:53 45.32995 5.93152 13317 ft 301 kts 259°
2026-04-28 12:54 45.32525 5.89241 12977 ft 300 kts 259°
2026-04-28 12:54 45.32179 5.86360 12729 ft 300 kts 259°
2026-04-28 12:54 45.31824 5.83403 12477 ft 299 kts 259°
2026-04-28 12:54 45.31474 5.80497 12223 ft 299 kts 259°
2026-04-28 12:55 45.31121 5.77591 11968 ft 298 kts 259°
2026-04-28 12:55 45.30773 5.74726 11718 ft 298 kts 259°
2026-04-28 12:55 45.30416 5.71793 11475 ft 297 kts 259°
2026-04-28 12:55 45.30071 5.68945 11224 ft 296 kts 259°
2026-04-28 12:56 45.29725 5.66063 10969 ft 296 kts 259°
2026-04-28 12:56 45.29380 5.63192 10722 ft 295 kts 259°
2026-04-28 12:56 45.29028 5.60325 10469 ft 294 kts 259°
2026-04-28 12:56 45.28700 5.57458 10215 ft 294 kts 265°
2026-04-28 12:57 45.28941 5.54605 9969 ft 293 kts 290°
2026-04-28 12:57 45.29997 5.52161 10008 ft 294 kts 313°
2026-04-28 12:57 45.31663 5.50505 10025 ft 295 kts 338°
2026-04-28 12:57 45.33633 5.49648 10027 ft 296 kts 340°
2026-04-28 12:58 45.35473 5.48360 10023 ft 296 kts 325°
2026-04-28 12:58 45.37040 5.46448 9648 ft 301 kts 310°
2026-04-28 12:58 45.38229 5.44022 9319 ft 296 kts 301°
2026-04-28 12:58 45.39331 5.41558 8940 ft 295 kts 302°
2026-04-28 12:59 45.40446 5.39113 8550 ft 293 kts 303°
2026-04-28 12:59 45.41558 5.36697 8173 ft 291 kts 303°
2026-04-28 12:59 45.42667 5.34291 7774 ft 289 kts 303°
2026-04-28 12:59 45.43758 5.31915 7146 ft 285 kts 302°
2026-04-28 13:00 45.44833 5.29563 6487 ft 283 kts 303°
2026-04-28 13:00 45.45900 5.27227 5838 ft 279 kts 302°
2026-04-28 13:00 45.46954 5.24913 5253 ft 280 kts 303°
2026-04-28 13:00 45.48011 5.22592 4940 ft 275 kts 303°
2026-04-28 13:01 45.49010 5.20395 4784 ft 253 kts 302°
2026-04-28 13:01 45.49935 5.18372 4663 ft 237 kts 303°
2026-04-28 13:01 45.50811 5.16454 4568 ft 226 kts 302°
2026-04-28 13:01 45.51651 5.14606 4463 ft 218 kts 302°
2026-04-28 13:02 45.52550 5.12929 4350 ft 211 kts 317°
2026-04-28 13:02 45.53742 5.11829 4189 ft 204 kts 338°
2026-04-28 13:02 45.55120 5.11410 3939 ft 198 kts 355°
2026-04-28 13:02 45.56462 5.11251 3679 ft 190 kts 355°
2026-04-28 13:03 45.57707 5.11101 3467 ft 171 kts 355°
2026-04-28 13:03 45.58841 5.10964 3221 ft 156 kts 354°
2026-04-28 13:03 45.59902 5.10836 3023 ft 151 kts 355°
2026-04-28 13:03 45.60939 5.10711 2824 ft 149 kts 354°
2026-04-28 13:04 45.61967 5.10586 2630 ft 148 kts 354°
2026-04-28 13:04 45.62997 5.10462 2432 ft 148 kts 355°
2026-04-28 13:04 45.64027 5.10336 2234 ft 149 kts 355°
2026-04-28 13:04 45.65058 5.10211 2039 ft 148 kts 355°
2026-04-28 13:05 45.66087 5.10088 1845 ft 149 kts 355°
2026-04-28 13:05 45.67115 5.09963 1642 ft 147 kts 355°
2026-04-28 13:05 45.68135 5.09840 1444 ft 147 kts 355°
2026-04-28 13:05 45.68811 5.09753 1326 ft 147 kts 354°
2026-04-28 13:06 45.69828 5.09619 1123 ft 147 kts 355°
2026-04-28 13:06 45.70840 5.09505 944 ft 145 kts 355°
2026-04-28 13:06 45.71836 5.09385 823 ft 137 kts 355°
2026-04-28 13:06 45.72636 5.09293 808 ft 91 kts 355°
2026-04-28 13:07 45.73068 5.09239 795 ft 26 kts 355°
2026-04-28 13:07 45.73253 5.09218 794 ft 27 kts 356°
2026-04-28 13:07 45.73433 5.09195 787 ft 18 kts 346°
2026-04-28 13:07 45.73525 5.09069 785 ft 20 kts 306°
2026-04-28 13:08 45.73601 5.08878 778 ft 19 kts 297°
2026-04-28 13:08 45.73666 5.08703 777 ft 21 kts 298°
2026-04-28 13:08 45.73710 5.08494 777 ft 23 kts 284°
2026-04-28 13:08 45.73691 5.08285 777 ft 22 kts 219°
2026-04-28 13:09 45.73541 5.08267 780 ft 22 kts 176°
2026-04-28 13:09 45.73380 5.08286 781 ft 24 kts 174°
2026-04-28 13:09 45.73219 5.08307 785 ft 23 kts 175°
2026-04-28 13:09 45.73057 5.08325 787 ft 24 kts 174°
2026-04-28 13:10 45.72893 5.08347 790 ft 24 kts 174°
2026-04-28 13:10 45.72730 5.08367 791 ft 21 kts 175°
2026-04-28 13:10 45.72585 5.08383 795 ft 17 kts 175°
2026-04-28 13:10 45.72467 5.08399 796 ft 18 kts 174°
2026-04-28 13:11 45.72346 5.08414 798 ft 16 kts 175°
2026-04-28 13:11 45.72263 5.08355 799 ft 13 kts 244°
2026-04-28 13:11 45.72228 5.08235 797 ft 9 kts 248°
2026-04-28 13:11 45.72217 5.08197 797 ft 0 kts 249°